METOP A

operational
NORAD ID: 29499 Int'l Des: 2006-044 Owner: EUMET Country: I-EUM
LEORETROGRADESSO

Über METOP A

Beschreibung wird geladen...

Live-Position

3D-Globus wird geladen...

Nächste Überflüge

Höhenverlauf

Altitude vs Time

uPlot chart will show altitude changes over time

Zweizeiliger Elementsatz

1 29499U 06044A 26061.15979048 .00002079 00000-0 24461-3 0 9993
2 29499 98.3249 164.5982 0175904 50.8899 154.7417 14.75542723 9660
Epoch: 2. März 2026 • Age: 24 hours

Aktueller Status

Höhe 555.8 km
Geschwindigkeit 7.63 km/s
Subsatellitenpunkt 4.27°N, 2.72°E
Startdatum 19. Okt. 2006
Alter 19.3 years
Typ other

Technische Details

Klassifizierung Payload
Masse 4086.00 kg
Trockenmasse 3769.00 kg
Gesamtmasse 4086.00 kg
Länge 6.30 m
Durchmesser 3.40 m
Spannweite 17.60 m
Form Box + Pan
Hersteller EADSB
Bus-Typ Metop
Phasenstatus In Orbit
Besitzer/Staat EUMET/I-EUM

Große Konstellationen

Loading constellations...